AirNav   Pilot Hours Calculator
 
 410 users online  

6PN7 Moyer Heliport
Pocono Lake, Pennsylvania, USA

GOING TO POCONO LAKE?


FAA INFORMATION EFFECTIVE 31 DECEMBER 2020

Location

FAA Identifier: 6PN7
Lat/Long: 41-06-01.0000N 075-34-51.0000W
41-06.016667N 075-34.850000W
41.1002778,-75.5808333
(estimated)
Elevation: 1675 ft. / 511 m (estimated)
From city: 5 miles E of POCONO LAKE, PA
Time zone: UTC -5 (UTC -4 during Daylight Saving Time)
Zip code: 18347

Heliport Operations

Heliport use: Private use. Permission required prior to landing
Activation date: 09/2004
Control tower: no
ARTCC: NEW YORK CENTER
FSS: WILLIAMSPORT FLIGHT SERVICE STATION
Attendance: UNATNDD
Segmented circle: no

Heliport Communications

WX ASOS at MPO (9 nm E): 120.275 (570-839-1584)
WX ASOS at AVP (16 nm NW): 111.6 (570-655-0748)
WX AWOS-3PT at 22N (19 nm SW): 119.350 (570-386-3423)
WX AWOS-3 at HZL (20 nm W): 119.975 (570-459-4901)

Nearby radio navigation aids

VOR radial/distance  VOR name  Freq  Var
LVZr165/11.5WILKES-BARRE VORTAC111.6010W
FJCr356/23.1ALLENTOWN VORTAC117.5010W
ETXr018/31.5EAST TEXAS VOR/DME110.2009W
STWr292/32.8STILLWATER VOR/DME109.6011W
BWZr309/38.9BROADWAY VOR/DME114.2011W

Heliport Services

Runway Information

Helipad H1

Dimensions: 60 x 60 ft. / 18 x 18 m
Surface: concrete
Traffic pattern: leftleft

Heliport Ownership and Management from official FAA records

Ownership: Privately-owned
Owner: DAVE MOYER
471 ROUTE 940
POCONO LAKE, PA 18347-7796
Phone (570) 656-4172
Manager: DAVE MOYER
471 ROUTE 940
POCONO LAKE, PA 18347-7796
Phone (570) 656-4172

Heliport Operational Statistics

Aircraft based on the field: 1
Helicopters: 1
    

Additional Remarks

FOR CD CTC WILKES-BARRE APCH AT 570-655-2084.
APP HDGS 220/310, DEP HDGS 040/130

Instrument Procedures

There are no published instrument procedures at 6PN7.

Some nearby airports with instrument procedures:

KMPO - Pocono Mountains Municipal Airport (9 nm E)
KAVP - Wilkes-Barre/Scranton International Airport (16 nm NW)
70N - Spring Hill Airport (17 nm NE)
KWBW - Wilkes-Barre Wyoming Valley Airport (17 nm NW)
22N - Jake Arner Memorial Airport (19 nm SW)
N53 - Stroudsburg-Pocono Airport (19 nm E)
KHZL - Hazleton Regional Airport (20 nm W)
 
Loc | Ops | Rwys | IFR | FBO | Links
Com | Nav | Svcs | Stats | Notes
Area around 6PN7 (Moyer Heliport)
 
Road maps at: MapQuest Bing Google
 
Aerial photo
No photo
 
Sectional chart

 
Airport distance calculator
Flying to Moyer Heliport? Find the distance to fly.

From to 6PN7

Sunrise and sunset
Times for 23-Jan-2021
 Local
(UTC-5)
 Zulu
(UTC)
Morning civil twilight06:5211:52
Sunrise07:2212:22
Sunset17:0722:07
Evening civil twilight17:3622:36

Current date and time
Zulu (UTC)  23-Jan-2021 07:30:08
Local (UTC-5)  23-Jan-2021 02:30:08
 
METAR
KMPO 
9nm E 
230653Z AUTO 29012G19KT 10SM SCT028 OVC035 M07/M12 A2986 RMK AO2 SLP134 T10671122 $
KAVP 
16nm NW 
230654Z 32010KT 10SM OVC050 M03/M12 A2994 RMK AO2 SLP147 T10331117
K22N 
19nm SW 
230715Z AUTO 29005KT 10SM OVC050 M01/M12 A2999 RMK AO2
KHZL 
20nm W 
230715Z AUTO 29009G16KT 10SM OVC042 M04/M13 A2994 RMK AO2
TAF
KAVP 
16nm NW 
230541Z 2306/2406 30011G19KT P6SM BKN060 FM232100 31014G25KT P6SM BKN080
NOTAMs
Click for the latest NOTAMs
NOTAMs are issued by the DoD/FAA and will open in a separate window not controlled by AirNav.

 

 
 

Would you like to see your business listed on this page?

 If your business provides an interesting product or service to pilots, flight crews, aircraft, or users of the Moyer Heliport, you should consider listing it here.  To start the listing process, click on the button below
 
Add a business
 

Other Pages about Moyer Heliport

Update a link
 
Copyright © AirNav, LLC. All rights reserved. Privacy Policy  Contact